When you browse on this site, cookies collect data to enhance your experience and personalize the content and advertising you see.
Visit our Privacy Policy to learn more. By continuing to use the site, you agree to this use of cookies and data.
  • In Portugal
  • List of Countries
  • For 7 days
  • Water Temperature
  • Satellite Maps
  • Weather Map
  • Weather Widgets
  • user-avatar
    Login

    Hourly Weather Polikschina

    Today, 22 March, Friday

    Time Temperature Precipitation Wind Pressure Humidity
    00:00 +5°C° 0.1 mm 6 mps 747 mmHg 84%
    01:00 +5°C° 0.1 mm 7 mps 747 mmHg 86%
    02:00 +5°C° 0 mm 6 mps 746 mmHg 89%
    03:00 +7°C° 0 mm 6 mps 746 mmHg 89%
    04:00 +6°C° 0 mm 7 mps 746 mmHg 88%
    05:00 +6°C° 0 mm 7 mps 746 mmHg 88%
    06:00 +6°C° 0.1 mm 7 mps 746 mmHg 85%
    07:00 +6°C° 0.1 mm 8 mps 746 mmHg 83%
    08:00 +6°C° 0 mm 9 mps 747 mmHg 77%
    09:00 +5°C° 0 mm 9 mps 747 mmHg 66%
    10:00 +5°C° 0 mm 10 mps 748 mmHg 54%
    11:00 +5°C° 0 mm 10 mps 748 mmHg 42%
    12:00 +5°C° 0 mm 10 mps 749 mmHg 39%
    13:00 +5°C° 0 mm 10 mps 749 mmHg 37%
    14:00 +5°C° 0 mm 10 mps 749 mmHg 34%
    15:00 +5°C° 0 mm 9 mps 750 mmHg 36%
    16:00 +3°C° 0 mm 9 mps 750 mmHg 37%
    17:00 +4°C° 0 mm 8 mps 750 mmHg 38%
    18:00 +2°C° 0 mm 8 mps 750 mmHg 42%
    19:00 +2°C° 0 mm 7 mps 751 mmHg 45%
    20:00 +1°C° 0 mm 6 mps 751 mmHg 49%
    21:00 -1°C° 0 mm 6 mps 751 mmHg 52%
    22:00 -1°C° 0 mm 6 mps 751 mmHg 55%
    23:00 -2°C° 0 mm 6 mps 752 mmHg 58%

    Tomorrow, 23 March, Saturday

    Time Temperature Precipitation Wind Pressure Humidity
    00:00 -2°C° 0 mm 6 mps 752 mmHg 61%
    01:00 -2°C° 0 mm 5 mps 752 mmHg 63%
    02:00 -2°C° 0 mm 5 mps 752 mmHg 66%
    03:00 -2°C° 0 mm 5 mps 752 mmHg 67%
    04:00 -2°C° 0 mm 5 mps 752 mmHg 68%
    05:00 -4°C° 0 mm 5 mps 752 mmHg 69%
    06:00 -2°C° 0 mm 4 mps 752 mmHg 68%
    07:00 -2°C° 0 mm 4 mps 752 mmHg 66%
    08:00 -1°C° 0 mm 4 mps 752 mmHg 65%
    09:00 0°C° 0 mm 4 mps 752 mmHg 59%
    10:00 +3°C° 0 mm 3 mps 752 mmHg 54%
    11:00 +4°C° 0 mm 3 mps 752 mmHg 48%
    12:00 +5°C° 0 mm 3 mps 752 mmHg 44%
    13:00 +7°C° 0 mm 2 mps 751 mmHg 40%
    14:00 +8°C° 0 mm 2 mps 751 mmHg 36%
    15:00 +8°C° 0 mm 2 mps 750 mmHg 37%
    16:00 +8°C° 0 mm 2 mps 750 mmHg 37%
    17:00 +8°C° 0 mm 2 mps 749 mmHg 38%
    18:00 +7°C° 0 mm 2 mps 749 mmHg 41%
    19:00 +5°C° 0 mm 2 mps 749 mmHg 44%
    20:00 +4°C° 0 mm 2 mps 749 mmHg 47%
    21:00 +3°C° 0 mm 3 mps 748 mmHg 49%
    22:00 +3°C° 0 mm 3 mps 748 mmHg 50%
    23:00 +3°C° 0 mm 4 mps 747 mmHg 52%

    Day after tomorrow, 24 March, Sunday

    Time Temperature Precipitation Wind Pressure Humidity
    00:00 +3°C° 0.4 mm 4 mps 746 mmHg 58%
    01:00 +3°C° 0.4 mm 4 mps 746 mmHg 64%
    02:00 +2°C° 0.4 mm 5 mps 745 mmHg 70%
    03:00 +3°C° 0.1 mm 4 mps 745 mmHg 78%
    04:00 +4°C° 0.1 mm 4 mps 745 mmHg 86%
    05:00 +4°C° 0.1 mm 4 mps 745 mmHg 93%
    06:00 +4°C° 0 mm 4 mps 745 mmHg 88%
    07:00 +4°C° 0 mm 4 mps 745 mmHg 84%
    08:00 +3°C° 0 mm 5 mps 745 mmHg 79%
    09:00 +3°C° 0 mm 5 mps 746 mmHg 70%
    10:00 +5°C° 0 mm 5 mps 746 mmHg 61%
    11:00 +5°C° 0 mm 6 mps 746 mmHg 52%
    12:00 +5°C° 0 mm 6 mps 745 mmHg 49%
    13:00 +5°C° 0 mm 6 mps 745 mmHg 47%
    14:00 +7°C° 0 mm 6 mps 745 mmHg 44%
    15:00 +5°C° 0 mm 6 mps 745 mmHg 45%
    16:00 +6°C° 0 mm 5 mps 745 mmHg 47%
    17:00 +5°C° 0 mm 5 mps 744 mmHg 48%
    18:00 +5°C° 0 mm 4 mps 744 mmHg 52%
    19:00 +4°C° 0 mm 4 mps 744 mmHg 56%
    20:00 +3°C° 0 mm 3 mps 744 mmHg 60%
    21:00 +2°C° 0 mm 3 mps 744 mmHg 63%
    22:00 +2°C° 0 mm 3 mps 744 mmHg 66%
    23:00 +1°C° 0 mm 3 mps 744 mmHg 69%

    25 March, Monday

    Time Temperature Precipitation Wind Pressure Humidity
    00:00 +1°C° 0 mm 3 mps 743 mmHg 72%
    01:00 0°C° 0 mm 3 mps 743 mmHg 75%
    02:00 0°C° 0 mm 3 mps 743 mmHg 78%
    03:00 -1°C° 0 mm 3 mps 743 mmHg 81%
    04:00 -1°C° 0 mm 3 mps 742 mmHg 84%
    05:00 -1°C° 0 mm 3 mps 742 mmHg 87%
    06:00 -2°C° 0.1 mm 4 mps 741 mmHg 86%
    07:00 -1°C° 0.1 mm 4 mps 741 mmHg 85%
    08:00 0°C° 0.1 mm 5 mps 741 mmHg 84%
    09:00 0°C° 0.1 mm 5 mps 740 mmHg 80%
    10:00 +1°C° 0.1 mm 5 mps 740 mmHg 77%
    11:00 +1°C° 0.1 mm 5 mps 740 mmHg 73%
    12:00 +2°C° 0 mm 5 mps 739 mmHg 70%
    13:00 +4°C° 0 mm 4 mps 739 mmHg 66%
    14:00 +4°C° 0 mm 4 mps 739 mmHg 63%
    15:00 +4°C° 0.1 mm 3 mps 739 mmHg 63%
    16:00 +4°C° 0.1 mm 3 mps 738 mmHg 62%
    17:00 +5°C° 0.1 mm 2 mps 738 mmHg 62%
    18:00 +4°C° 0.1 mm 2 mps 738 mmHg 68%
    19:00 +4°C° 0.1 mm 1 mps 739 mmHg 74%
    20:00 +3°C° 0.1 mm 1 mps 739 mmHg 80%
    21:00 +3°C° 0.1 mm 1 mps 739 mmHg 82%
    22:00 +3°C° 0.1 mm 1 mps 739 mmHg 84%
    23:00 +3°C° 0.1 mm 1 mps 740 mmHg 86%

    26 March, Tuesday

    Time Temperature Precipitation Wind Pressure Humidity
    00:00 +1°C° 0.1 mm 2 mps 740 mmHg 85%
    01:00 +1°C° 0.1 mm 2 mps 741 mmHg 85%
    02:00 +1°C° 0.1 mm 2 mps 741 mmHg 85%
    03:00 0°C° 0 mm 3 mps 742 mmHg 86%
    04:00 -1°C° 0 mm 3 mps 743 mmHg 88%
    05:00 -1°C° 0 mm 3 mps 743 mmHg 90%
    06:00 -2°C° 0 mm 4 mps 744 mmHg 88%
    07:00 -1°C° 0 mm 5 mps 745 mmHg 86%
    08:00 -2°C° 0 mm 6 mps 746 mmHg 84%
    09:00 -1°C° 0 mm 6 mps 747 mmHg 74%
    10:00 +1°C° 0 mm 6 mps 747 mmHg 65%
    11:00 +1°C° 0 mm 6 mps 748 mmHg 56%
    12:00 +2°C° 0 mm 5 mps 748 mmHg 50%
    13:00 +3°C° 0 mm 5 mps 748 mmHg 44%
    14:00 +3°C° 0 mm 5 mps 748 mmHg 38%
    15:00 +3°C° 0 mm 5 mps 748 mmHg 40%
    16:00 +3°C° 0 mm 5 mps 749 mmHg 43%
    17:00 +2°C° 0 mm 5 mps 749 mmHg 45%
    18:00 +1°C° 0 mm 4 mps 749 mmHg 51%
    19:00 0°C° 0 mm 4 mps 749 mmHg 57%
    20:00 0°C° 0 mm 3 mps 749 mmHg 63%
    21:00 0°C° 0 mm 3 mps 749 mmHg 65%
    22:00 0°C° 0 mm 3 mps 749 mmHg 67%
    23:00 -1°C° 0 mm 3 mps 749 mmHg 69%

    27 March, Wednesday

    Time Temperature Precipitation Wind Pressure Humidity
    00:00 -2°C° 0 mm 4 mps 748 mmHg 70%
    01:00 -2°C° 0 mm 4 mps 748 mmHg 71%
    02:00 -2°C° 0 mm 4 mps 748 mmHg 73%
    03:00 -1°C° 0 mm 4 mps 748 mmHg 75%
    04:00 -1°C° 0 mm 5 mps 748 mmHg 77%
    05:00 -1°C° 0 mm 5 mps 747 mmHg 78%
    06:00 -1°C° 0 mm 5 mps 747 mmHg 79%
    07:00 0°C° 0 mm 5 mps 747 mmHg 80%
    08:00 0°C° 0 mm 5 mps 747 mmHg 80%
    09:00 +1°C° 0 mm 5 mps 747 mmHg 79%
    10:00 +1°C° 0 mm 5 mps 747 mmHg 77%
    11:00 +2°C° 0 mm 5 mps 747 mmHg 75%
    12:00 +3°C° 0 mm 5 mps 747 mmHg 75%
    13:00 +3°C° 0 mm 5 mps 747 mmHg 75%
    14:00 +3°C° 0 mm 6 mps 747 mmHg 75%
    15:00 +3°C° 0 mm 5 mps 747 mmHg 77%
    16:00 +3°C° 0 mm 5 mps 747 mmHg 80%
    17:00 +3°C° 0 mm 5 mps 747 mmHg 82%
    18:00 +3°C° 0.4 mm 5 mps 747 mmHg 86%
    19:00 +3°C° 0.4 mm 4 mps 747 mmHg 89%
    20:00 +3°C° 0.4 mm 4 mps 747 mmHg 93%
    21:00 +3°C° 0.1 mm 4 mps 748 mmHg 93%
    22:00 +2°C° 0.1 mm 3 mps 748 mmHg 93%
    23:00 +2°C° 0.1 mm 3 mps 748 mmHg 94%
    Show more